Starlink 30524

operational
NORAD ID: 57965 Int'l Des: 2023-151 Owner: SPXS Country: US Constellation: starlink
LEOCIRCULAR

Über Starlink 30524

Beschreibung wird geladen...

Live-Position

3D-Globus wird geladen...

Nächste Überflüge

Höhenverlauf

Altitude vs Time

uPlot chart will show altitude changes over time

Zweizeiliger Elementsatz

1 57965U 23151B 25304.03445639 .00000110 00000-0 23226-4 0 9993
2 57965 43.0054 323.0120 0001223 264.9003 95.1700 15.02536969116234
Epoch: 31. Okt. 2025 • Age: 22 hours

Aktueller Status

Höhe 562.7 km
Geschwindigkeit 7.58 km/s
Subsatellitenpunkt -18.59°S, 89.14°W
Startdatum 30. Sept. 2023
Alter 2 years
Typ internet

Technische Details

Klassifizierung Payload
Masse 730.00 kg
Trockenmasse 700.00 kg
Gesamtmasse 730.00 kg
Länge 0.30 m
Durchmesser 4.10 m
Spannweite 29.00 m
Form Box + pan
Hersteller SPXS
Bus-Typ Starlink V2M
Phasenstatus In Orbit
Besitzer/Staat SPXS/US

Große Konstellationen

Loading constellations...